Location: *
(48.4333°N, 5.0333°W)
Time: 08:04:22
(UTC+00:00)

BREEZE-M DEB (TANK) - Visible Passes

Search period start: 11 August 2020 00:00
Search period end: 21 August 2020 00:00
Orbit: 266 x 13093 km, 49.6° (Epoch: 10 August)

Date Brightness Start Highest point End Pass type
(mag) Time Alt. Az. Time Alt. Az. Time Alt. Az.
11 Aug 7.6 03:00:14 10° WSW 04:45:23 89° NNW 05:05:14 10° E visible
11 Aug 9.0 20:21:05 10° E 20:30:37 10° E 20:39:16 10° ENE visible
11 Aug 8.5 23:34:43 26° S 00:52:12 60° SE 01:32:14 10° ENE visible
12 Aug 7.3 04:00:44 10° WSW 05:36:14 87° N 05:52:13 10° E visible
12 Aug 8.9 20:21:46 10° ESE 21:14:14 20° E 21:48:15 10° ENE visible
12 Aug 8.3 23:56:24 10° SSW 01:44:01 71° SE 02:20:02 10° ENE visible
13 Aug 8.8 20:46:17 10° SE 21:59:33 30° E 22:41:22 10° ENE visible
14 Aug 8.1 00:45:30 10° SSW 02:36:39 80° SSE 03:07:32 10° ENE visible
14 Aug 8.7 21:20:08 10° SSE 22:46:38 41° ESE 23:31:32 10° ENE visible
15 Aug 7.9 01:37:48 10° SW 03:29:17 87° SSE 03:54:51 10° ENE visible
15 Aug 8.7 21:59:44 10° S 23:35:31 52° ESE 00:20:25 10° ENE visible
16 Aug 7.6 02:33:52 10° WSW 04:21:18 89° N 04:41:58 10° E visible
16 Aug 9.0 19:38:15 10° E 20:03:57 13° E 20:24:30 10° ENE visible
16 Aug 8.5 22:43:13 10° S 00:26:10 63° SE 01:08:37 10° ENE visible
17 Aug 7.3 03:34:15 10° WSW 05:12:18 87° N 05:28:54 10° E visible
17 Aug 8.9 19:49:05 10° ESE 20:47:28 22° E 21:25:20 10° ENE visible
17 Aug 8.4 23:29:41 10° SSW 01:18:20 73° SE 01:56:24 10° ENE visible
18 Aug 7.0 04:38:22 10° W 06:02:11 90° SSW 06:15:36 10° ESE visible
18 Aug 8.8 20:16:11 10° SE 21:32:42 32° E 22:17:40 10° ENE visible
19 Aug 8.2 00:18:56 10° SSW 02:11:22 82° SSE 02:43:54 10° ENE visible
19 Aug 8.7 20:51:36 10° SSE 22:19:44 43° ESE 23:07:36 10° ENE visible
20 Aug 7.9 01:11:15 10° SW 03:04:26 88° SSE 03:31:12 10° ENE visible
20 Aug 8.6 21:32:07 10° S 23:08:40 54° ESE 23:56:24 10° ENE visible
